, CA

(GMT )
Point Mugu

Weather History for KNTD - August, 2012

Change the Weather History Date:

Wednesday, August 22, 2012

  Actual Average Record
Temperature  
Mean Temperature 66 °F -  
Max Temperature 73 °F 70 °F 79 °F (2014)
Min Temperature 60 °F 56 °F 33 °F (1996)
Cooling Degree Days 1    
Growing Degree Days 16 (Base 50)    
Moisture  
Dew Point 61 °F    
Average Humidity 88    
Maximum Humidity 100    
Minimum Humidity 73    
Precipitation  
Precipitation 0.00 in - - ()
Sea Level Pressure  
Sea Level Pressure 29.91 in    
Wind  
Wind Speed 7 mph (NNW)    
Max Wind Speed 10 mph    
Max Gust Speed 16 mph    
Visibility 6 miles    
Events      
Averages and records for this station are not official NWS values.
T = Trace of Precipitation, MM = Missing Value Source: NWS Daily Summary

Daily Weather History Graph

Daily Weather History Graph

Search for Another Location

Airport or City:

Trip Planner

Search our weather history database for the weather conditions in past years. The results will help you decide how hot, cold, wet, or windy it might be!

Date:

Astronomy

Aug. 22, 2012 Rise Set
Actual Time 6:23 AM PDT 7:34 PM PDT
Civil Twilight 5:57 AM PDT 8:00 PM PDT
Nautical Twilight 5:26 AM PDT 8:31 PM PDT
Astronomical Twilight 4:54 AM PDT 9:03 PM PDT
Moon 11:48 AM PDT (8/22) 10:39 PM PDT (8/22)
Length of Visible Light 14h 03m
Length of Day
13h 11m
Waxing Crescent, 30% of the Moon is Illuminated
Aug 22
Waxing Crescent
Aug 24
First Quarter
Aug 31
Full
Sep 8
Last Quarter
Sep 15
New

Hourly Weather History & Observations

Time (PDT) Temp. Dew Point Humidity Pressure Visibility Wind Dir Wind Speed Gust Speed Precip Events Conditions
12:54 AM 62.1 °F 60.1 °F 93% 29.91 in 10.0 mi Variable 5.8 mph - N/A   Clear
1:54 AM 60.1 °F 60.1 °F 100% 29.91 in 10.0 mi Variable 4.6 mph - N/A   Clear
2:27 AM 60.8 °F 60.8 °F 100% 29.91 in 10.0 mi Variable 5.8 mph - N/A   Mostly Cloudy
2:54 AM 62.1 °F 61.0 °F 96% 29.91 in 10.0 mi Variable 3.5 mph - N/A   Overcast
3:54 AM 63.0 °F 61.0 °F 93% 29.90 in 10.0 mi East 6.9 mph - N/A   Overcast
4:54 AM 64.0 °F 61.0 °F 90% 29.89 in 10.0 mi ENE 9.2 mph - N/A   Overcast
5:26 AM 62.6 °F 59.0 °F 88% 29.89 in 10.0 mi East 9.2 mph - N/A   Scattered Clouds
5:54 AM 62.1 °F 60.1 °F 93% 29.89 in 7.0 mi East 9.2 mph - N/A   Scattered Clouds
6:22 AM 62.6 °F 60.8 °F 94% 29.89 in 4.0 mi ENE 6.9 mph - N/A   Scattered Clouds
6:38 AM 71.6 °F 62.6 °F 73% 29.90 in 6.0 mi WSW 6.9 mph 16.1 mph N/A   Haze
6:54 AM 62.1 °F 60.1 °F 93% 29.90 in 4.0 mi East 9.2 mph - N/A   Mostly Cloudy
7:05 AM 62.6 °F 60.8 °F 94% 29.90 in 4.0 mi ENE 10.4 mph - N/A   Mostly Cloudy
7:54 AM 64.9 °F 61.0 °F 87% 29.91 in 4.0 mi ENE 6.9 mph - N/A   Overcast
8:54 AM 68.0 °F 63.0 °F 84% 29.92 in 4.0 mi South 8.1 mph - N/A   Haze
9:54 AM 70.0 °F 64.0 °F 81% 29.93 in 4.0 mi Variable 5.8 mph - N/A   Haze
10:54 AM 71.1 °F 64.0 °F 78% 29.93 in 4.0 mi West 6.9 mph - N/A   Haze
11:54 AM 72.0 °F 64.0 °F 76% 29.93 in 4.0 mi West 8.1 mph - N/A   Haze
12:54 PM 72.0 °F 64.0 °F 76% 29.93 in 4.0 mi Variable 6.9 mph - N/A   Haze
1:54 PM 72.0 °F 63.0 °F 73% 29.92 in 6.0 mi West 10.4 mph 16.1 mph N/A   Haze
2:32 PM 71.6 °F 62.6 °F 73% 29.90 in 6.0 mi West 9.2 mph 16.1 mph N/A   Haze
2:54 PM 70.0 °F 63.0 °F 78% 29.91 in 6.0 mi West 8.1 mph - N/A   Haze
3:54 PM 70.0 °F 62.1 °F 76% 29.90 in 5.0 mi Variable 6.9 mph 16.1 mph N/A   Haze
4:54 PM 68.0 °F 62.1 °F 81% 29.90 in 5.0 mi West 9.2 mph - N/A   Haze
5:54 PM 66.0 °F 60.1 °F 81% 29.89 in 5.0 mi WNW 10.4 mph - N/A   Haze
6:23 PM 62.6 °F 60.8 °F 94% 29.88 in 5.0 mi NW 8.1 mph - N/A   Mostly Cloudy
6:54 PM 62.1 °F 60.1 °F 93% 29.89 in 5.0 mi Variable 5.8 mph - N/A   Mostly Cloudy
7:54 PM 61.0 °F 60.1 °F 97% 29.90 in 4.0 mi Variable 4.6 mph - N/A   Overcast
8:54 PM 62.1 °F 60.1 °F 93% 29.91 in 4.0 mi Calm Calm - N/A   Overcast
9:36 PM - - N/A% 29.92 in 4.0 mi NNE 3.5 mph - N/A   Mostly Cloudy
9:42 PM 62.6 °F 60.8 °F 94% 29.92 in 4.0 mi NNE 3.5 mph - N/A   Mostly Cloudy
9:54 PM 62.1 °F 60.1 °F 93% 29.93 in 4.0 mi North 4.6 mph - N/A   Mostly Cloudy
10:54 PM 62.1 °F 61.0 °F 96% 29.93 in 4.0 mi South 6.9 mph - N/A   Overcast
11:54 PM 62.1 °F 61.0 °F 96% 29.94 in 10.0 mi South 6.9 mph - N/A   Overcast